« Back
NWS Peachtree City, Ga » Text Product » GA Regional Weather Roundup


Printer-friendly Version
Current Version              Previous Versions:   1  2  3  4  5  6  7  8  9  

Regional Weather Roundup

204
ASUS42 KFFC 010003
RWRGA
WEATHER ROUNDUP FOR GEORGIA
NATIONAL WEATHER SERVICE PEACHTREE CITY GA
800 PM EDT TUE MAR 31 2015

NOTE: "FAIR" INDICATES FEW OR NO CLOUDS BELOW 12,000 FEET WITH NO
SIGNIFICANT WEATHER AND/OR OBSTRUCTIONS TO VISIBILITY.

* = USE WITH CAUTION. THE STATIONS MARKED WITH AN ASTERISK MAY NOT
REPORT WEATHER SUCH AS PRECIPITATION, FOG, OR THUNDER AND ARE NOT
QUALITY CONTROLLED BY NWS.

THE REMARK "TC" DENOTES TEMPERATURE READING IN DEGREES CELSIUS.

GAZ001>058-010100-
NORTH GEORGIA

CITY           SKY/WX    TMP DP  RH WIND       PRES   REMARKS
ATLANTA        CLOUDY    66  56  70 W8        29.96R
6HR MIN TEMP:  66; 6HR MAX TEMP:  76; 6HR PCP: TRACE;

ATHENS         PTCLDY    71  52  50 W7        29.89S
6HR MIN TEMP:  71; 6HR MAX TEMP:  79;

CHAMBLEE       CLOUDY    68  56  65 SW6       29.93F
6HR MIN TEMP:  68; 6HR MAX TEMP:  75;

PEACHTREE CITY LGT RAIN  63  56  78 W14G20    30.00R
6HR MIN TEMP:  62; 6HR MAX TEMP:  77; 6HR PCP:  0.25;

ROME           MOCLDY    69  57  65 W8        29.91R
6HR MIN TEMP:  69; 6HR MAX TEMP:  75;

WEST ATLANTA   CLOUDY    68  57  68 SW9       29.95R
6HR MIN TEMP:  68; 6HR MAX TEMP:  75;

GAINESVILLE    PTCLDY    68  54  60 W13       29.91S
6HR MIN TEMP:  68; 6HR MAX TEMP:  76;

CARTERSVILLE   CLOUDY    66  57  72 VRB3      29.93S
6HR MIN TEMP:  66; 6HR MAX TEMP:  75;



CITY           SKY/WX    TMP DP  RH WIND       PRES   REMARKS
DALTON*        PTCLDY    70  55  60 CALM      29.89S
LAWRENCEVILLE* CLEAR     70  54  56 SW6       29.90F
KENNESAW*      MOCLDY    68  57  68 MISG      29.94S
$$

GAZ059>098-102>109-010100-
CENTRAL GEORGIA

CITY           SKY/WX    TMP DP  RH WIND       PRES   REMARKS
AUGUSTA-BUSH   MOCLDY    75  52  44 W9        29.89R
6HR MIN TEMP:  75; 6HR MAX TEMP:  80;

AUGUSTA-DANIEL MOCLDY    76  52  43 VRB5      29.90R
6HR MIN TEMP:  76; 6HR MAX TEMP:  80;

COLUMBUS       CLOUDY    76  52  43 W7        29.95R
6HR MIN TEMP:  76; 6HR MAX TEMP:  80;

MACON          CLOUDY    67  62  84 S5        29.93F
6HR MIN TEMP:  67; 6HR MAX TEMP:  81; 6HR PCP:  0.01;

ROBINS AFB     CLOUDY    67  65  92 SE6       29.92S


CITY           SKY/WX    TMP DP  RH WIND       PRES   REMARKS
LAGRANGE*      TSTM      65  62  88 N7        29.99R
SYLVANIA*      MOCLDY    74  59  58 W8        29.92S
MILLEDGEVILLE* CLOUDY    70  61  73 CALM      29.91F
$$

GAZ099>101-110>166-010100-
SOUTH GEORGIA

CITY           SKY/WX    TMP DP  RH WIND       PRES   REMARKS
SAVANNAH       CLOUDY    74  55  51 SW8       29.93S
6HR MIN TEMP:  74; 6HR MAX TEMP:  82;

VALDOSTA       PTCLDY    75  63  66 S7        29.98S
6HR MIN TEMP:  74; 6HR MAX TEMP:  81;

ALMA           PTCLDY    72  59  63 NW5       29.96R
6HR MIN TEMP:  72; 6HR MAX TEMP:  80;

ST SIMONS      CLOUDY    75  58  55 SW10      29.95F
6HR MIN TEMP:  70; 6HR MAX TEMP:  81;

FT STEWART     MOCLDY    74  58  56 W7        29.93R
ALBANY         PTCLDY    76  56  49 SW6       29.97S
HUNTER AFB     MOCLDY    73  59  59 SW6       29.92R
MOODY AFB      CLEAR     73  60  64 S7        29.96S
BRUNSWICK      CLOUDY    75  55  50 SW6       29.95S


CITY           SKY/WX    TMP DP  RH WIND       PRES   REMARKS
BAINBRIDGE*    CLEAR     79  63  57 SW13      29.98R
MOULTRIE*      PTCLDY    75  57  53 SW3       29.98S
VIDALIA*       LGT RAIN  73  61  64 SW9       29.94F
WAYCROSS*      PTCLDY    78  62  58 W7        29.96R
DOUGLAS*       PTCLDY    72  63  73 CALM      29.98R
$$



USA.gov is the U.S. government's official web portal to all federal, state and local government web resources and services.